Regional Weather Roundup
Issued by NWS

Home | Current Version | Previous Version | Graphics & Text | Print | Product List | Glossary On
Versions: 1 2 3 4 5 6 7 8 9 10 11 12 13 14 15 16 17 18 19 20 21 22 23 24 25 26 27
000
ASUS45 KPSR 202310
RWRAZ

ARIZONA HOURLY REGIONAL WEATHER ROUNDUP
NATIONAL WEATHER SERVICE PHOENIX AZ
400 PM MST FRI JAN 20 2017

NOTE: FAIR INDICATES FEW OR NO CLOUDS BELOW 12,000 FEET WITH NO
SIGNIFICANT WEATHER AND/OR OBSTRUCTIONS TO VISIBILITY.

AZZ001>003-036-210000-
NORTHWEST ARIZONA

CITY           SKY/WX    TMP DP  RH WIND       PRES   REMARKS
BULLHEAD CITY  CLOUDY    54  45  71 S28       29.47F
KINGMAN          N/A     45  33  63 S24G35    29.50S
$$

AZZ004>008-015-016-018-210000-
NORTH CENTRAL ARIZONA

CITY           SKY/WX    TMP DP  RH WIND       PRES   REMARKS
GRAND CANYON   SNOW      30  29  96 S20G30    29.52F VSB 1/2 WCI  17
PRESCOTT       MIX PCPN  36  34  92 S10       29.59F FOG     WCI  28
FLAGSTAFF      SNOW      28  27  96 SW18G25   29.55F VSB 1/2 WCI  15
PAYSON         LGT SNOW  34  34 100 VRB6G12   29.67F WCI  29
PAGE           LGT RAIN  41  32  70 S6        29.50F
$$

AZZ009>014-017-210000-
NORTHEAST ARIZONA

CITY           SKY/WX    TMP DP  RH WIND       PRES   REMARKS
WINSLOW        CLOUDY    46  29  51 SW18      29.58S
SAINT JOHNS    CLOUDY    42  30  62 W23G32    29.59F
SHOW LOW       LGT SNOW  32  28  86 S20G30    29.61S VSB 3/4 WCI  20
$$

AZZ023-210000-
GREATER PHOENIX AREA

CITY           SKY/WX    TMP DP  RH WIND       PRES   REMARKS
PHOENIX        LGT RAIN  52  50  93 SE5       29.64F
GLENDALE       LGT RAIN  50  50 100 CALM      29.67F FOG
LUKE AFB       LGT RAIN  50 N/A N/A NE5       29.64F
DEER VALLEY    LGT RAIN  48  48 100 NE5       29.64F FOG
SCOTTSDALE     LGT RAIN  51  48  89 CALM      29.66F
MESA-FALCON    RAIN     N/A N/A N/A S21       29.63F
MESA-GATEWAY   RAIN      52  48  87 SW13G29   29.68R
CHANDLER       CLOUDY    54  48  82 NW22G35   29.67R
$$

AZZ027-028-210000-
SOUTHWEST MARICOPA COUNTY AND PINAL COUNTY

CITY           SKY/WX    TMP DP  RH WIND       PRES   REMARKS
CASA GRANDE    LGT RAIN  52  49  89 S15       29.67F
$$

AZZ503-504-507>509-210000-
SOUTHEAST ARIZONA

CITY           SKY/WX    TMP DP  RH WIND       PRES   REMARKS
TUCSON         CLOUDY    55  40  56 S17G29    29.72F
DAVIS-MONTHAN  LGT RAIN  54  41  62 S15G22    29.71F
RYAN FIELD     CLOUDY    55  41  58 S17G30    29.73F
NOGALES        LGT RAIN  46  42  86 S12       29.75F
SIERRA VISTA   CLOUDY    47  36  66 VRB5      29.76R
DOUGLAS        CLOUDY    51  34  52 S18       29.76F
SAFFORD        CLOUDY    55  35  47 NW13      29.66F
$$

AZZ020-021-025-026-031-210000-
SOUTHWEST ARIZONA

CITY           SKY/WX    TMP DP  RH WIND       PRES   REMARKS
YUMA           CLOUDY    66  45  46 S24G33    29.54F
$$

CAZ031-033-041-043-047-048-061-210000-
SOUTHERN CALIFORNIA

CITY           SKY/WX    TMP DP  RH WIND       PRES   REMARKS
DOWNTOWN L.A.  PTSUNNY   59  54  83 W8        29.43F
L.A. AIRPORT   PTSUNNY   58  53  84 W23       29.44F
SAN DIEGO      LGT RAIN  58  54  86 W20G26    29.52F
BURBANK        PTSUNNY   56  48  74 VRB6      29.41F
ONTARIO        LGT RAIN  52  49  89 W23G40    29.42F
PALM SPRINGS   HVY RAIN  50  49  96 NW13      29.47S FOG
EL CENTRO NAS  PTSUNNY   64  44  48 S9        29.49F
IMPERIAL       CLOUDY    65  45  48 SW9       29.47F
BLYTHE         LGT RAIN  60  49  66 S23G31    29.51F
NEEDLES        LGT RAIN  55  45  68 S14       29.50F
$$

NVZ020-UTZ003-210000-
SOUTHERN NEVADA-UTAH

CITY           SKY/WX    TMP DP  RH WIND       PRES   REMARKS
LAS VEGAS      LGT RAIN  47  40  76 CALM      29.40F
SALT LAKE CITY CLOUDY    42  26  53 S14       29.38F
$$

NMZ009-TXZ055-210000-
NEW MEXICO-WEST TEXAS

CITY           SKY/WX    TMP DP  RH WIND       PRES   REMARKS
ALBUQUERQUE    CLOUDY    42  28  57 E6        29.64F
EL PASO        PTSUNNY   59  25  27 W23       29.68F
$$


........................KEY........................
SKY/WX - SKY CONDITION/WEATHER
TMP    - TEMPERATURE IN FAHRENHEIT
DP     - DEW POINT IN FAHRENHEIT
RH     - RELATIVE HUMIDITY IN PERCENT
WIND   - DIRECTION AND SPEED IN MILES PER HOUR (MPH)
VRB    - VARIABLE WIND DIRECTION
PRES   - MEAN SEA LEVEL PRESSURE IN INCHES OF MERCURY
         F - FALLING PRESSURE   R - RISING PRESSURE
         S - STEADY PRESSURE
VSB    - VISIBILITY IN MILES
HX     - HEAT INDEX IN FAHRENHEIT
WCI    - WIND CHILL INDEX IN FAHRENHEIT
TC     - TEMPERATURE IN CELSIUS WHICH IS ALSO KNOWN AS
         TEMPERATURE IN CENTIGRADE
AFB    - AIR FORCE BASE
         LUKE AFB IS LUKE AIR FORCE BASE
         DAVIS-MONTHAN IS DAVIS-MONTHAN AIR FORCE BASE
NAS    - NAVAL AIR STATION
         EL CENTRO NAS IS EL CENTRO NAVAL AIR STATION
N/A    - NOT AVAILABLE





USA.gov is the U.S. government's official web portal to all federal, state and local government web resources and services.